Location: Lourdes
(43.1000°N, 0.0500°W)
Time: 18:20:54
(UTC+00:00)

Cosmos 2297 - Visible Passes

Search period start: 16 April 2021 00:00
Search period end: 26 April 2021 00:00
Orbit: 836 x 859 km, 71.0° (Epoch: 15 April)

Date Brightness Start Highest point End Pass type
(mag) Time Alt. Az. Time Alt. Az. Time Alt. Az.
16 Apr 4.8 03:06:45 17° SSE 03:10:39 41° ESE 03:15:58 10° NE visible
17 Apr 4.8 02:54:04 22° SSE 02:57:15 40° ESE 03:02:33 10° NE visible
17 Apr 4.6 04:36:20 10° WSW 04:41:28 33° NW 04:46:38 10° N visible
18 Apr 4.8 02:41:20 26° SSE 02:43:52 39° ESE 02:49:08 10° NE visible
18 Apr 4.6 04:23:16 12° WSW 04:28:04 34° NW 04:33:15 10° N visible
19 Apr 4.8 02:28:31 29° SE 02:30:28 38° ESE 02:35:42 10° NE visible
19 Apr 4.6 04:10:27 15° WSW 04:14:39 34° NW 04:19:51 10° N visible
20 Apr 4.8 02:15:39 32° SE 02:17:04 37° ESE 02:22:17 10° NE visible
20 Apr 4.5 03:57:35 18° WSW 04:01:13 35° NW 04:06:27 10° N visible
21 Apr 4.7 02:02:44 34° SE 02:03:40 36° ESE 02:08:51 10° NE visible
21 Apr 4.5 03:44:40 21° WSW 03:47:48 36° WNW 03:53:03 10° N visible
22 Apr 4.7 01:49:46 35° ESE 01:50:16 35° ESE 01:55:25 10° NE visible
22 Apr 4.5 03:31:42 24° WSW 03:34:23 36° WNW 03:39:40 10° N visible
23 Apr 4.8 01:36:46 35° ESE 01:36:52 35° ESE 01:41:59 10° NE visible
23 Apr 4.5 03:18:41 27° W 03:20:58 37° WNW 03:26:16 10° N visible
24 Apr 4.8 01:23:43 34° E 01:23:43 34° E 01:28:34 10° NE visible
24 Apr 4.5 03:05:38 30° W 03:07:33 38° WNW 03:12:52 10° N visible
25 Apr 4.9 01:10:38 33° E 01:10:38 33° E 01:15:08 10° NE visible
25 Apr 4.5 02:52:33 32° W 02:54:08 39° WNW 02:59:28 10° NNE visible
